Dades meteomassalio
Diari Summary for Diciembre 13, 2017 Units:  Metric    English   Both
« Previous Day
Next Day »
Diari Semanal Mensual Anual Personalitzat
  Maxima: Minima: Mijana:
Temperatura: -17.8 °C -20.2 °C -16.5 °C
Rosada: -17.8 °C -22.1 °C -19.5 °C
Humitat: Humidity % 46 % 69 %
Velocitat del vent: 0 km/h 0 km/h 5.3 km/h
Racha vent: 0 km/h - -
Vent:- - West
Pressio: 0 hPa 34703.1 hPa -
Pluja: 0 mm    
Historical Graphs
 
 
Tabular Data for Diciembre 13, 2017
Time Temperature Dew Point Pressure Wind Wind Speed Wind Gust Humidity Rainfall Rate (Hourly) solar Conditions
-17.8 °C -17.8 °C 0 hPa Calm     Humidity % 0 mm SolarRadiationWatts/m^2 W/m2 Conditions
00:07 -18.7 °C -21.8 °C 34760.7 hPa West 33.6 km/h 33.6 km/h 66 % 0 mm 0.0 W/m2 CLR
00:17 -18.7 °C -21.8 °C 34774.2 hPa NW 32.8 km/h 32.8 km/h 66 % 0 mm 0.0 W/m2 CLR
00:22 -19 °C -22.1 °C 34774.2 hPa NW 35.7 km/h 35.7 km/h 66 % 0 mm 0.0 W/m2 CLR
00:32 -19 °C -22.1 °C 34774.2 hPa WNW 29.8 km/h 29.8 km/h 66 % 0 mm 0.0 W/m2 CLR
00:37 -19 °C -22.1 °C 34774.2 hPa WNW 15.6 km/h 15.6 km/h 66 % 0 mm 0.0 W/m2 CLR
00:42 -19 °C -22.1 °C 34774.2 hPa WNW 20.9 km/h 20.9 km/h 66 % 0 mm 0.0 W/m2 CLR
00:47 -19 °C -21.9 °C 34784.4 hPa WNW 23.8 km/h 23.8 km/h 67 % 0 mm 0.0 W/m2 CLR
00:52 -19 °C -21.8 °C 34784.4 hPa WNW 20.9 km/h 20.9 km/h 68 % 0 mm 0.0 W/m2 CLR
01:17 -19 °C -21.8 °C 34784.4 hPa West 17.9 km/h 17.9 km/h 69 % 0 mm 0.0 W/m2 CLR
01:32 -19.3 °C -22.1 °C 34784.4 hPa WSW 11.9 km/h 11.9 km/h 69 % 0 mm 0.0 W/m2 CLR
01:37 -19.3 °C -22.1 °C 34784.4 hPa Calm     69 % 0 mm 0.0 W/m2 CLR
01:42 -19.3 °C -21.9 °C 34784.4 hPa Calm     70 % 0 mm 0.0 W/m2 CLR
01:47 -19.3 °C -21.6 °C 34784.4 hPa Calm     73 % 0 mm 0.0 W/m2 CLR
01:52 -19.3 °C -21.4 °C 34784.4 hPa Calm     75 % 0 mm 0.0 W/m2 CLR
01:57 -19.3 °C -21.3 °C 34784.4 hPa West 9 km/h 9 km/h 76 % 0 mm 0.0 W/m2 CLR
02:07 -19.3 °C -21.6 °C 34784.4 hPa Calm     73 % 0 mm 0.0 W/m2 CLR
02:17 -19.6 °C -21.6 °C 34784.4 hPa Calm     76 % 0 mm 0.0 W/m2 CLR
02:22 -19.6 °C -21.6 °C 34784.4 hPa West 18.2 km/h 18.2 km/h 77 % 0 mm 0.0 W/m2 CLR
02:27 -19.6 °C -21.3 °C 34784.4 hPa West 17.9 km/h 17.9 km/h 79 % 0 mm 0.0 W/m2 CLR
02:37 -19.6 °C -21.9 °C 34784.4 hPa West 15 km/h 15 km/h 73 % 0 mm 0.0 W/m2 CLR
02:47 -19.6 °C -22.1 °C 34797.9 hPa WNW 17.9 km/h 17.9 km/h 72 % 0 mm 0.0 W/m2 CLR
02:52 -19.6 °C -22.1 °C 34797.9 hPa West 20.8 km/h 20.8 km/h 71 % 0 mm 0.0 W/m2 CLR
02:57 -19.6 °C -22.1 °C 34797.9 hPa West 11.9 km/h 11.9 km/h 71 % 0 mm 0.0 W/m2 CLR
03:03 -19.6 °C -22.1 °C 34784.4 hPa West 6 km/h 6 km/h 71 % 0 mm 0.0 W/m2 CLR
03:13 -19.6 °C -21.9 °C 34797.9 hPa West 9 km/h 9 km/h 73 % 0 mm 0.0 W/m2 CLR
03:18 -19.6 °C -21.9 °C 34797.9 hPa Calm     73 % 0 mm 0.0 W/m2 CLR
03:23 -19.6 °C -21.7 °C 34797.9 hPa Calm     75 % 0 mm 0.0 W/m2 CLR
03:28 -19.6 °C -21.7 °C 34797.9 hPa Calm     75 % 0 mm 0.0 W/m2 CLR
03:33 -19.6 °C -21.6 °C 34797.9 hPa Calm     76 % 0 mm 0.0 W/m2 CLR
03:38 -19.6 °C -21.4 °C 34797.9 hPa Calm     78 % 0 mm 0.0 W/m2 CLR
03:48 -19.6 °C -21.3 °C 34784.4 hPa Calm     79 % 0 mm 0.0 W/m2 CLR
03:53 -19.6 °C -21.3 °C 34784.4 hPa Calm     80 % 0 mm 0.0 W/m2 CLR
03:58 -19.6 °C -21.3 °C 34784.4 hPa Calm     80 % 0 mm 0.0 W/m2 CLR
04:03 -19.6 °C -21.3 °C 34784.4 hPa Calm     80 % 0 mm 0.0 W/m2 CLR
04:13 -19.6 °C -21.3 °C 34784.4 hPa Calm     79 % 0 mm 0.0 W/m2 CLR
04:18 -19.6 °C -21.3 °C 34784.4 hPa Calm     79 % 0 mm 0.0 W/m2 CLR
04:20 -19.6 °C -21.3 °C 34784.4 hPa Calm     80 % 0 mm 0.0 W/m2 CLR
04:22 -19.6 °C -21.3 °C 34784.4 hPa Calm     80 % 0 mm 0.0 W/m2 CLR
04:27 -19.6 °C -21.3 °C 34784.4 hPa West 9 km/h 9 km/h 80 % 0 mm 0.0 W/m2 CLR
04:32 -19.6 °C -21.2 °C 34784.4 hPa Calm     81 % 0 mm 0.0 W/m2 CLR
04:37 -19.6 °C -21.2 °C 34784.4 hPa Calm     81 % 0 mm 0.0 W/m2 CLR
04:42 -19.6 °C -21.2 °C 34797.9 hPa Calm     81 % 0 mm 0.0 W/m2 CLR
04:47 -19.6 °C -21.1 °C 34797.9 hPa Calm     82 % 0 mm 0.0 W/m2 CLR
04:52 -19.6 °C -21.1 °C 34797.9 hPa Calm     82 % 0 mm 0.0 W/m2 CLR
04:57 -19.6 °C -21.1 °C 34797.9 hPa Calm     82 % 0 mm 0.0 W/m2 CLR
05:02 -19.6 °C -21.1 °C 34797.9 hPa Calm     82 % 0 mm 0.0 W/m2 CLR
05:07 -19.6 °C -21.1 °C 34797.9 hPa Calm     82 % 0 mm 0.0 W/m2 CLR
05:12 -19.9 °C -21.3 °C 34797.9 hPa Calm     83 % 0 mm 0.0 W/m2 CLR
05:17 -19.6 °C -21.1 °C 34784.4 hPa Calm     82 % 0 mm 0.0 W/m2 CLR
05:22 -19.6 °C -21 °C 34784.4 hPa WSW 9 km/h 9 km/h 83 % 0 mm 0.0 W/m2 CLR
05:37 -19.9 °C -21.3 °C 34797.9 hPa Calm     83 % 0 mm 0.0 W/m2 CLR
05:42 -19.9 °C -21.3 °C 34784.4 hPa Calm     83 % 0 mm 0.0 W/m2 CLR
05:47 -19.9 °C -21.3 °C 34797.9 hPa WSW 3.1 km/h 3.1 km/h 83 % 0 mm 0.0 W/m2 CLR
05:52 -19.9 °C -21.2 °C 34784.4 hPa WSW 6 km/h   84 % 0 mm 0.0 W/m2 CLR
05:57 -19.9 °C -21.3 °C 34784.4 hPa Calm     83 % 0 mm 0.0 W/m2 CLR
06:02 -19.9 °C -21.3 °C 34784.4 hPa Calm     83 % 0 mm 0.0 W/m2 CLR
06:07 -19.9 °C -21.3 °C 34784.4 hPa Calm     83 % 0 mm 0.0 W/m2 CLR
06:12 -20.2 °C -21.6 °C 34784.4 hPa Calm     83 % 0 mm 0.0 W/m2 CLR
06:22 -20.2 °C -21.6 °C 34784.4 hPa Calm     83 % 0 mm 0.0 W/m2 CLR
06:32 -20.2 °C -21.5 °C 34784.4 hPa Calm     84 % 0 mm 0.0 W/m2 CLR
06:37 -20.2 °C -21.5 °C 34797.9 hPa Calm     84 % 0 mm 0.0 W/m2 CLR
06:42 -19.9 °C -21.3 °C 34797.9 hPa Calm     83 % 0 mm 0.0 W/m2 CLR
06:47 -19.6 °C -21 °C 34797.9 hPa Calm     83 % 0 mm 0.0 W/m2 CLR
06:52 -19.6 °C -21 °C 34808.1 hPa Calm     83 % 0 mm 0.0 W/m2 CLR
06:57 -19.9 °C -21.2 °C 34808.1 hPa Calm     84 % 0 mm 0.0 W/m2 CLR
07:07 -19.9 °C -21.3 °C 34808.1 hPa Calm     83 % 0 mm 0.0 W/m2 CLR
07:12 -19.9 °C -21.3 °C 34808.1 hPa Calm     83 % 0 mm 0.0 W/m2 CLR
07:17 -19.9 °C -21.2 °C 34808.1 hPa Calm     85 % 0 mm 0.0 W/m2 CLR
07:22 -19.9 °C -21.2 °C 34808.1 hPa Calm     85 % 0 mm 0.0 W/m2 CLR
07:32 -19.9 °C -21.2 °C 34808.1 hPa Calm     85 % 0 mm 0.0 W/m2 CLR
07:37 -19.9 °C -21.2 °C 34808.1 hPa Calm     85 % 0 mm 0.0 W/m2 CLR
07:42 -19.9 °C -21.2 °C 34808.1 hPa Calm     85 % 0 mm 0.0 W/m2 CLR
07:52 -19.9 °C -21.1 °C 34818.2 hPa Calm     86 % 0 mm 0.0 W/m2 CLR
07:57 -19.9 °C -21.2 °C 34831.8 hPa Calm     85 % 0 mm 0.0 W/m2 CLR
08:02 -19.9 °C -21.1 °C 34818.2 hPa Calm     86 % 0 mm 0.0 W/m2 CLR
08:07 -19.9 °C -21.1 °C 34818.2 hPa Calm     86 % 0 mm 0.0 W/m2 OVC
08:12 -19.9 °C -21.1 °C 34818.2 hPa Calm     86 % 0 mm 5.0 W/m2 OVC
08:17 -19.9 °C -20.9 °C 34818.2 hPa Calm     87 % 0 mm 11.0 W/m2 BKN
08:22 -19.9 °C -20.9 °C 34818.2 hPa Calm     87 % 0 mm 12.0 W/m2 BKN
08:27 -19.9 °C -20.9 °C 34818.2 hPa Calm     87 % 0 mm 16.0 W/m2 BKN
08:32 -19.9 °C -20.9 °C 34831.8 hPa Calm     87 % 0 mm 21.0 W/m2 BKN
08:37 -19.9 °C -20.9 °C 34818.2 hPa Calm     87 % 0 mm 21.0 W/m2 BKN
08:42 -19.6 °C -20.6 °C 34818.2 hPa Calm     88 % 0 mm 23.0 W/m2 BKN
09:05 -19.6 °C -20.7 °C 34831.8 hPa Calm     87 % 0 mm 58.0 W/m2 SCT
09:10 -19.3 °C -20.5 °C 34818.2 hPa Calm     85 % 0 mm 58.0 W/m2 SCT
09:15 -19.3 °C -20.6 °C 34818.2 hPa Calm     84 % 0 mm 54.0 W/m2 SCT
09:20 -19.3 °C -20.6 °C 34818.2 hPa Calm     84 % 0 mm 58.0 W/m2 SCT
09:25 -19.3 °C -20.6 °C 34818.2 hPa Calm     84 % 0 mm 86.0 W/m2 SCT
09:30 -19 °C -20.3 °C 34818.2 hPa Calm     84 % 0 mm 102.0 W/m2 FEW
09:41 -18.7 °C -19.9 °C 34831.8 hPa Calm     85 % 0 mm 111.0 W/m2 CLR
09:46 -18.7 °C -19.9 °C 34831.8 hPa Calm     85 % 0 mm 156.0 W/m2 CLR
09:51 -18.7 °C -19.9 °C 34831.8 hPa Calm     85 % 0 mm 113.0 W/m2 CLR
09:56 -18.4 °C -19.7 °C 34841.9 hPa Calm     84 % 0 mm 107.0 W/m2 CLR
10:01 -18.4 °C -19.8 °C 34841.9 hPa Calm     83 % 0 mm 120.0 W/m2 CLR
10:11 -18.1 °C -19.5 °C 34841.9 hPa Calm     83 % 0 mm 160.0 W/m2 CLR
10:16 -17.8 °C -19.3 °C 34841.9 hPa Calm     82 % 0 mm 162.0 W/m2 CLR
10:26 -17.4 °C -19.1 °C 34841.9 hPa Calm     81 % 0 mm 165.0 W/m2 CLR
10:31 -17.2 °C -18.8 °C 34841.9 hPa Calm     81 % 0 mm 192.0 W/m2 CLR
10:36 -16.8 °C -18.6 °C 34841.9 hPa Calm     80 % 0 mm 243.0 W/m2 CLR
10:46 -16.6 °C -18.4 °C 34841.9 hPa Calm     78 % 0 mm 195.0 W/m2 CLR
10:51 -16.2 °C -18.2 °C 34841.9 hPa NW 12.9 km/h 12.9 km/h 77 % 0 mm 221.0 W/m2 CLR
10:56 -15.9 °C -18.8 °C 34841.9 hPa NW 23.8 km/h 23.8 km/h 69 % 0 mm 246.0 W/m2 CLR
11:01 -15.6 °C -18.9 °C 34831.8 hPa Calm     65 % 0 mm 225.0 W/m2 CLR
11:06 -15.3 °C -18.9 °C 34831.8 hPa SSW 23.8 km/h 23.8 km/h 63 % 0 mm 211.0 W/m2 CLR
11:16 -14.4 °C -18.4 °C 34831.8 hPa NW 12.9 km/h 12.9 km/h 60 % 0 mm 176.0 W/m2 CLR
11:21 -14.1 °C -18.2 °C 34818.2 hPa WNW 23.8 km/h 23.8 km/h 59 % 0 mm 163.0 W/m2 CLR
11:26 -13.4 °C -17.9 °C 34818.2 hPa WNW 23.8 km/h 23.8 km/h 57 % 0 mm 167.0 W/m2 CLR
11:31 -13.2 °C -17.6 °C 34818.2 hPa NW 23.8 km/h 23.8 km/h 57 % 0 mm 185.0 W/m2 CLR
11:36 -12.8 °C -17.4 °C 34818.2 hPa West 20.9 km/h 20.9 km/h 56 % 0 mm 213.0 W/m2 CLR
11:41 -12.8 °C -17.6 °C 34808.1 hPa West 3.1 km/h 3.1 km/h 55 % 0 mm 214.0 W/m2 CLR
11:46 -12.6 °C -17.3 °C 34808.1 hPa NW 6 km/h 6 km/h 55 % 0 mm 209.0 W/m2 CLR
12:01 -12.2 °C -17.2 °C 34797.9 hPa WNW 20.9 km/h 20.9 km/h 54 % 0 mm 216.0 W/m2 CLR
12:11 -12.2 °C -17.3 °C 34797.9 hPa WNW 6 km/h 6 km/h 53 % 0 mm 209.0 W/m2 CLR
12:16 -12.2 °C -17.3 °C 34797.9 hPa Calm     53 % 0 mm 206.0 W/m2 CLR
12:21 -11.9 °C -17 °C 34797.9 hPa Calm     53 % 0 mm 218.0 W/m2 CLR
12:26 -11.9 °C -17 °C 34797.9 hPa West 2.6 km/h   53 % 0 mm 227.0 W/m2 CLR
12:31 -11.9 °C -17.2 °C 34784.4 hPa West 3.1 km/h 3.1 km/h 52 % 0 mm 218.0 W/m2 CLR
12:36 -11.9 °C -17.2 °C 34784.4 hPa WNW 6 km/h 6 km/h 52 % 0 mm 192.0 W/m2 CLR
12:41 -11.6 °C -16.9 °C 34784.4 hPa Calm     52 % 0 mm 162.0 W/m2 CLR
12:46 -11.6 °C -16.9 °C 34784.4 hPa NNW 23.3 km/h 23.3 km/h 52 % 0 mm 178.0 W/m2 CLR
13:01 -11.6 °C -16.9 °C 34797.9 hPa NE 23.8 km/h 23.8 km/h 52 % 0 mm 404.0 W/m2 CLR
13:26 -11.9 °C -16.9 °C 34784.4 hPa North 20.8 km/h 20.8 km/h 54 % 0 mm 429.0 W/m2 CLR
13:31 -11.9 °C -17.2 °C 34784.4 hPa NNW 12.9 km/h 13.5 km/h 52 % 0 mm 213.0 W/m2 CLR
13:41 -11.9 °C -17 °C 34774.2 hPa NNW 10.3 km/h 10.3 km/h 53 % 0 mm 374.0 W/m2 CLR
13:51 -11.6 °C -17.1 °C 34774.2 hPa Calm     51 % 0 mm 425.0 W/m2 CLR
13:56 -11.6 °C -17.1 °C 34774.2 hPa NW 23.8 km/h 23.8 km/h 51 % 0 mm 452.0 W/m2 CLR
14:06 -11.3 °C -16.9 °C 34760.7 hPa Calm     50 % 0 mm 332.0 W/m2 CLR
14:11 -11.3 °C -16.8 °C 34760.7 hPa Calm   0.3 km/h 51 % 0 mm 415.0 W/m2 CLR
14:16 -11.3 °C -17.1 °C 34750.5 hPa NNW 23.8 km/h 23.8 km/h 49 % 0 mm 404.0 W/m2 CLR
14:26 -11 °C -17.1 °C 34750.5 hPa NW 20.9 km/h 20.9 km/h 47 % 0 mm 380.0 W/m2 CLR
14:31 -11 °C -17.3 °C 34750.5 hPa NW 26.9 km/h 26.9 km/h 46 % 0 mm 297.0 W/m2 CLR
14:36 -11 °C -17.3 °C 34740.4 hPa West 20.8 km/h 20.8 km/h 46 % 0 mm 343.0 W/m2 CLR
14:41 -11 °C -17.1 °C 34740.4 hPa WNW 17.9 km/h 17.9 km/h 47 % 0 mm 396.0 W/m2 CLR
14:51 -10.7 °C -16.8 °C 34740.4 hPa NW 15.6 km/h 15.6 km/h 47 % 0 mm 246.0 W/m2 CLR
14:56 -11 °C -17.1 °C 34740.4 hPa North 20.9 km/h 20.9 km/h 47 % 0 mm 190.0 W/m2 CLR
15:01 -11 °C -17.1 °C 34740.4 hPa NNW 17.9 km/h   47 % 0 mm 313.0 W/m2 CLR
15:06 -11 °C -17.1 °C 34740.4 hPa NE 23.8 km/h 23.8 km/h 47 % 0 mm 288.0 W/m2 CLR
15:11 -11.3 °C -17.2 °C 34740.4 hPa NE 20.9 km/h 20.9 km/h 48 % 0 mm 306.0 W/m2 CLR
15:16 -11.3 °C -17.2 °C 34740.4 hPa ENE 23.8 km/h 23.8 km/h 48 % 0 mm 281.0 W/m2 CLR
15:21 -11.3 °C -17.1 °C 34750.5 hPa NE 26.9 km/h 26.9 km/h 49 % 0 mm 279.0 W/m2 CLR
15:26 -11.3 °C -17.1 °C 34740.4 hPa NNE 23.8 km/h 23.8 km/h 49 % 0 mm 232.0 W/m2 CLR
15:31 -11.3 °C -17.1 °C 34740.4 hPa NE 20.9 km/h 20.9 km/h 49 % 0 mm 251.0 W/m2 CLR
15:36 -11.3 °C -17.1 °C 34740.4 hPa Calm     49 % 0 mm 232.0 W/m2 CLR
15:41 -11.3 °C -17.1 °C 34726.8 hPa Calm     49 % 0 mm 197.0 W/m2 CLR
15:49 -11.3 °C -17.2 °C 34726.8 hPa Calm     48 % 0 mm 148.0 W/m2 CLR
15:54 -11.3 °C -17.2 °C 34726.8 hPa Calm     48 % 0 mm 176.0 W/m2 CLR
15:59 -11.3 °C -17.2 °C 34740.4 hPa Calm     48 % 0 mm 120.0 W/m2 CLR
16:04 -11.6 °C -17.5 °C 34726.8 hPa Calm     48 % 0 mm 107.0 W/m2 CLR
16:09 -11.6 °C -17.5 °C 34726.8 hPa Calm     48 % 0 mm 105.0 W/m2 CLR
16:14 -11.6 °C -17.3 °C 34726.8 hPa Calm     49 % 0 mm 95.0 W/m2 CLR
16:19 -11.6 °C -17.2 °C 34726.8 hPa Calm     50 % 0 mm 120.0 W/m2 CLR
16:24 -11.9 °C -17.4 °C 34726.8 hPa Calm     50 % 0 mm 76.0 W/m2 CLR
16:29 -11.9 °C -17.4 °C 34726.8 hPa Calm     50 % 0 mm 70.0 W/m2 FEW
16:34 -12.2 °C -17.7 °C 34726.8 hPa Calm     50 % 0 mm 63.0 W/m2 SCT
16:39 -12.2 °C -17.6 °C 34726.8 hPa Calm     51 % 0 mm 60.0 W/m2 SCT
16:44 -12.6 °C -17.9 °C 34726.8 hPa Calm     51 % 0 mm 58.0 W/m2 SCT
16:49 -12.8 °C -18 °C 34726.8 hPa Calm     52 % 0 mm 51.0 W/m2 SCT
16:54 -12.8 °C -18 °C 34726.8 hPa Calm     52 % 0 mm 44.0 W/m2 SCT
16:59 -12.8 °C -18 °C 34726.8 hPa Calm     52 % 0 mm 42.0 W/m2 BKN
17:05 -13.2 °C -18.2 °C 34716.7 hPa Calm     53 % 0 mm 32.0 W/m2 BKN
17:10 -13.2 °C -18 °C 34726.8 hPa Calm     54 % 0 mm 25.0 W/m2 BKN
17:20 -13.4 °C -18.3 °C 34726.8 hPa Calm     54 % 0 mm 11.0 W/m2 BKN
17:25 -13.8 °C -18.6 °C 34726.8 hPa Calm     54 % 0 mm 7.0 W/m2 BKN
17:30 -14.1 °C -18.7 °C 34726.8 hPa Calm     55 % 0 mm 0.0 W/m2 OVC
17:35 -14.4 °C -18.9 °C 34726.8 hPa Calm     56 % 0 mm 0.0 W/m2 OVC
17:40 -14.4 °C -18.8 °C 34726.8 hPa Calm     57 % 0 mm 0.0 W/m2 OVC
17:45 -14.1 °C -18.3 °C 34726.8 hPa Calm     58 % 0 mm 0.0 W/m2 CLR
17:50 -14.4 °C -18.5 °C 34716.7 hPa Calm     59 % 0 mm 0.0 W/m2 CLR
17:55 -14.4 °C -18.4 °C 34716.7 hPa Calm     60 % 0 mm 0.0 W/m2 CLR
18:00 -14.4 °C -18.2 °C 34726.8 hPa Calm     61 % 0 mm 0.0 W/m2 CLR
18:05 -14.7 °C -18.4 °C 34726.8 hPa Calm     62 % 0 mm 0.0 W/m2 CLR
18:10 -15 °C -18.7 °C 34726.8 hPa Calm     62 % 0 mm 0.0 W/m2 CLR
18:17 -15.3 °C -18.9 °C 34726.8 hPa Calm     63 % 0 mm 0.0 W/m2 CLR
18:21 -15.3 °C -18.9 °C 34726.8 hPa Calm     63 % 0 mm 0.0 W/m2 CLR
18:26 -15.3 °C -18.8 °C 34726.8 hPa Calm     64 % 0 mm 0.0 W/m2 CLR
18:31 -15.6 °C -18.9 °C 34726.8 hPa Calm     65 % 0 mm 0.0 W/m2 CLR
18:46 -15.9 °C -18.9 °C 34726.8 hPa Calm     68 % 0 mm 0.0 W/m2 CLR
18:51 -15.9 °C -18.8 °C 34726.8 hPa Calm     69 % 0 mm 0.0 W/m2 CLR
19:01 -15.9 °C -18.7 °C 34726.8 hPa Calm     70 % 0 mm 0.0 W/m2 CLR
19:06 -16.2 °C -18.8 °C 34726.8 hPa Calm     71 % 0 mm 0.0 W/m2 CLR
19:16 -16.2 °C -18.8 °C 34726.8 hPa Calm     71 % 0 mm 0.0 W/m2 CLR
19:21 -15.9 °C -18.4 °C 34726.8 hPa Calm     72 % 0 mm 0.0 W/m2 CLR
19:26 -15.9 °C -18.4 °C 34726.8 hPa Calm     72 % 0 mm 0.0 W/m2 CLR
19:31 -15.9 °C -18.4 °C 34726.8 hPa Calm     72 % 0 mm 0.0 W/m2 CLR
19:36 -16.2 °C -18.8 °C 34726.8 hPa Calm     72 % 0 mm 0.0 W/m2 CLR
19:41 -16.6 °C -19.1 °C 34726.8 hPa Calm     72 % 0 mm 0.0 W/m2 CLR
19:56 -16.8 °C -19.3 °C 34726.8 hPa Calm     73 % 0 mm 0.0 W/m2 CLR
20:01 -16.8 °C -19.2 °C 34726.8 hPa Calm     74 % 0 mm 0.0 W/m2 CLR
20:06 -16.8 °C -19.3 °C 34726.8 hPa Calm     73 % 0 mm 0.0 W/m2 CLR
20:11 -16.8 °C -19.2 °C 34726.8 hPa Calm     74 % 0 mm 0.0 W/m2 CLR
20:16 -16.8 °C -19.2 °C 34726.8 hPa Calm     74 % 0 mm 0.0 W/m2 CLR
20:21 -17.2 °C -19.3 °C 34726.8 hPa Calm     75 % 0 mm 0.0 W/m2 CLR
20:26 -17.2 °C -19.3 °C 34726.8 hPa Calm     76 % 0 mm 0.0 W/m2 CLR
20:31 -17.2 °C -19.3 °C 34726.8 hPa Calm     76 % 0 mm 0.0 W/m2 CLR
20:36 -17.2 °C -19.3 °C 34726.8 hPa Calm     76 % 0 mm 0.0 W/m2 CLR
20:41 -17.2 °C -19.3 °C 34716.7 hPa Calm     76 % 0 mm 0.0 W/m2 CLR
20:46 -17.4 °C -19.4 °C 34726.8 hPa Calm     77 % 0 mm 0.0 W/m2 CLR
20:51 -17.4 °C -19.3 °C 34726.8 hPa Calm     78 % 0 mm 0.0 W/m2 CLR
21:01 -17.2 °C -19.1 °C 34716.7 hPa Calm     78 % 0 mm 0.0 W/m2 CLR
21:06 -17.2 °C -19.1 °C 34716.7 hPa Calm     78 % 0 mm 0.0 W/m2 CLR
21:21 -16.8 °C -18.8 °C 34726.8 hPa Calm     78 % 0 mm 0.0 W/m2 CLR
21:26 -17.2 °C -18.9 °C 34726.8 hPa Calm     79 % 0 mm 0.0 W/m2 CLR
21:36 -17.2 °C -18.9 °C 34726.8 hPa Calm     79 % 0 mm 0.0 W/m2 CLR
21:41 -17.2 °C -18.9 °C 34726.8 hPa Calm     79 % 0 mm 0.0 W/m2 CLR
21:51 -17.4 °C -19.3 °C 34726.8 hPa Calm     79 % 0 mm 0.0 W/m2 CLR
21:56 -17.4 °C -19.3 °C 34726.8 hPa Calm     79 % 0 mm 0.0 W/m2 CLR
22:01 -17.4 °C -19.2 °C 34726.8 hPa Calm     80 % 0 mm 0.0 W/m2 CLR
22:06 -17.4 °C -19.2 °C 34726.8 hPa West 23.8 km/h 23.8 km/h 80 % 0 mm 0.0 W/m2 CLR
22:11 -17.4 °C -19 °C 34726.8 hPa WNW 23.8 km/h 23.8 km/h 82 % 0 mm 0.0 W/m2 CLR
22:21 -17.2 °C -19.7 °C 34716.7 hPa West 35.7 km/h 35.7 km/h 72 % 0 mm 0.0 W/m2 CLR
22:32 -16.8 °C -20 °C 34716.7 hPa West 23.8 km/h 23.8 km/h 66 % 0 mm 0.0 W/m2 CLR
22:47 -16.6 °C -19.7 °C 34716.7 hPa West 20.8 km/h 20.8 km/h 66 % 0 mm 0.0 W/m2 CLR
22:57 -16.2 °C -19.4 °C 34703.1 hPa West 11.9 km/h   66 % 0 mm 0.0 W/m2 CLR
23:02 -15.9 °C -19.2 °C 34703.1 hPa Calm     65 % 0 mm 0.0 W/m2 CLR
23:07 -15.9 °C -19.2 °C 34703.1 hPa Calm     65 % 0 mm 0.0 W/m2 CLR
23:12 -15.9 °C -19 °C 34703.1 hPa Calm     67 % 0 mm 0.0 W/m2 CLR
23:17 -15.9 °C -18.8 °C 34703.1 hPa Calm     69 % 0 mm 0.0 W/m2 CLR
23:32 -15.6 °C -18.4 °C 34716.7 hPa Calm     70 % 0 mm 0.0 W/m2 CLR
23:37 -15.6 °C -18.3 °C 34716.7 hPa Calm     71 % 0 mm 0.0 W/m2 CLR
23:42 -15.6 °C -18.3 °C 34716.7 hPa Calm     71 % 0 mm 0.0 W/m2 CLR
23:47 -15.6 °C -18.2 °C 34716.7 hPa Calm     72 % 0 mm 0.0 W/m2 CLR
23:57 -15.6 °C -18.2 °C 34703.1 hPa Calm     72 % 0 mm 0.0 W/m2 CLR
Lo Temps de Massalio
Compliments of Weather Underground - 1 mb